Location: ???????
(55.4362°N, 38.1183°E)
Time: 18:23:21
(UTC+00:00)

Cosmos 389 Rocket - Pass Details

Date: 17 June 2021
Orbit: 440 x 471 km, 81.1° (Epoch: 29 July)

Event Time Altitude Azimuth Distance (km) Brightness Sun altitude
Rises 19:47:34 0° 346° (NNW) 2,449 8.3 -8.3°
Reaches altitude 10° 19:49:38 10° 348° (NNW) 1,574 6.7 -8.4°
Maximum altitude 19:53:04 75° 74° (ENE) 467 2.4 -8.6°
Enters shadow 19:56:09 12° 161° (SSE) 1,431 4.3 -8.7°
